Wind_Speed
4 4 5 5 4 5 4 4 5 7 10 11 12 12 11 10 9 8 7 7 6 5 5 5 5 5 6 6 6 7 7 7 7 7 7 7 7 7 7 8 9 9 10 10 10 9 8 8 7
7 7 7 8 8 8 7 6 5 7 8 9 11 12 12 11 10 8 7 6 5 5 5 5 5 6 6 7 7 8 8 8 9 9 9 10 10 10 10 11 11 12 13 14 14 13 12 11 9
8 8 9 11 12 11 9 8 6 6 7 8 11 12 13 11 11 9 9 8 7 7 6 6 6 7 8 8 8 9 9 10 10 10 11 11 12 12 12 12 13 14 15 16 17 16 16 15 13
9 10 11 13 14 13 11 10 9 7 7 7 10 13 13 13 13 12 11 10 9 9 8 8 8 9 9 10 10 10 11 11 11 11 12 12 13 13 14 14 14 15 16 17 18 18 18 18 17
11 12 14 15 17 14 12 11 11 10 8 8 11 13 14 14 14 14 12 11 11 11 10 10 10 10 11 11 12 12 13 12 12 13 13 13 13 14 14 15 15 16 17 18 18 19 19 20 20
14 15 16 18 19 17 15 13 13 11 9 10 12 15 15 14 14 14 13 12 11 12 11 11 12 12 12 12 12 13 13 13 13 13 14 14 14 15 15 16 17 18 19 20 20 21 21 21 21
16 17 18 22 22 20 18 16 15 13 12 12 13 16 16 16 16 14 13 13 12 12 13 13 13 13 13 13 14 14 14 14 15 15 15 15 16 17 18 19 20 20 21 21 21 21 22 22 22
18 19 21 25 25 24 22 20 18 15 15 14 15 17 19 18 17 15 14 15 15 15 15 15 15 15 15 15 16 16 16 17 17 17 17 18 18 19 20 21 22 22 23 23 22 22 23 23 23
19 21 24 27 27 26 25 23 21 20 18 18 18 19 20 18 17 16 15 16 17 18 19 19 18 18 19 18 18 19 19 19 19 19 20 20 21 21 22 22 23 24 24 23 22 22 21 22 22
21 21 27 31 31 30 28 27 25 24 22 21 21 22 21 20 19 18 17 19 20 21 21 21 21 20 21 21 21 21 22 21 21 21 21 22 22 23 23 24 25 25 24 23 23 23 23 22 22
23 23 30 34 35 34 32 30 29 28 27 25 24 24 24 24 23 22 20 20 20 21 22 23 22 22 23 23 23 24 23 22 23 23 23 23 24 24 24 25 26 26 25 24 23 23 24 23 23
25 26 29 34 36 37 35 34 32 31 30 29 28 26 26 27 25 22 21 19 19 20 21 22 24 25 24 25 25 24 22 22 23 23 24 25 26 26 26 27 27 27 26 25 24 23 24 23 23
24 25 27 31 34 36 36 36 34 33 32 32 30 29 28 27 23 21 19 19 19 19 20 21 23 24 24 24 23 24 23 23 24 26 27 27 27 28 28 28 28 27 27 26 25 24 24 24 24
19 21 23 27 30 33 35 35 35 33 33 32 31 29 27 24 21 19 18 18 18 19 19 20 21 22 24 24 24 25 25 26 27 28 28 28 28 29 29 29 29 29 29 28 27 27 26 26 25
15 17 20 23 26 28 32 32 33 32 32 30 29 27 25 23 20 18 17 17 17 17 18 19 21 23 25 26 26 27 28 28 28 28 29 29 30 31 31 31 31 31 31 30 29 28 28 27 26
12 14 16 18 20 23 25 26 27 28 27 27 26 25 24 22 19 17 16 15 17 18 19 21 22 24 25 26 27 28 28 29 29 29 30 30 31 31 31 31 31 32 31 31 31 30 29 28 27
9 10 11 12 15 17 19 21 22 24 24 24 24 22 21 20 18 16 15 15 17 18 20 21 23 24 26 27 28 29 29 30 29 29 30 30 30 31 31 31 32 32 32 32 32 31 30 30 29
6 7 9 9 10 13 15 17 18 20 20 20 19 19 18 17 16 15 15 15 17 19 20 22 24 25 27 28 28 29 29 30 30 30 30 30 30 31 31 32 32 32 32 33 32 32 31 31 31
5 6 7 7 7 9 11 12 14 16 17 17 16 14 13 12 12 13 14 15 17 19 21 22 24 26 27 28 29 29 29 30 30 30 30 29 29 30 30 31 31 32 33 33 34 33 33 32 32
5 4 4 5 6 7 7 8 11 11 11 11 10 9 8 8 9 11 13 15 17 19 21 23 25 26 27 28 28 29 29 29 29 29 29 29 29 29 29 30 31 31 32 32 33 33 33 33 33
4 3 3 5 4 4 6 5 7 5 3 4 4 3 3 5 7 10 13 16 18 20 21 23 24 26 27 28 29 29 30 30 30 30 30 30 30 30 29 30 31 31 31 32 32 32 33 33 34
3 3 3 4 4 5 4 4 2 2 3 3 2 1 2 4 7 10 12 15 16 18 20 21 23 24 25 26 27 28 29 29 30 31 31 31 31 30 30 30 31 31 31 32 32 32 32 33 34
5 4 4 3 4 4 4 3 2 2 3 3 2 1 3 5 7 9 12 14 16 17 18 20 21 22 23 24 25 26 26 27 28 29 30 30 30 30 30 30 31 31 32 32 32 32 32 33 33
6 5 3 2 2 3 4 4 3 3 2 1 1 2 4 5 7 10 12 14 15 17 19 20 22 22 23 24 25 25 25 26 27 27 28 29 29 30 30 31 31 32 33 33 34 34 34 34 33
7 7 5 3 3 2 1 2 2 1 1 2 3 4 5 7 9 11 12 14 16 18 20 22 23 24 24 25 26 26 26 26 27 27 28 29 30 31 32 33 34 35 35 36 36 36 36 36 35
8 9 8 6 4 4 4 3 4 4 5 6 7 7 8 9 11 12 14 15 17 19 22 23 25 26 26 27 27 27 27 27 28 29 30 31 32 33 35 36 37 37 38 38 38 38 38 38 38
9 9 9 7 5 5 5 5 6 8 9 10 10 10 10 11 12 13 15 17 19 21 24 26 27 28 29 29 29 30 30 30 31 32 32 33 34 35 37 38 39 40 40 39 39 39 39 39 39
9 10 9 8 6 5 5 6 8 10 12 12 12 12 12 13 14 15 17 19 22 24 26 29 30 30 31 31 32 33 33 34 34 35 36 37 38 38 39 39 40 40 40 40 39 39 39 39 40
10 10 11 10 9 7 6 6 9 10 11 12 13 13 14 15 16 18 20 22 24 26 29 30 31 32 32 33 34 35 36 36 37 38 39 39 40 40 40 40 39 39 39 39 38 38 38 38 38
11 11 12 11 9 8 8 7 9 11 12 13 14 15 17 18 19 20 22 24 26 28 30 31 32 33 34 35 36 37 38 38 39 40 41 42 42 42 41 40 40 39 38 37 36 37 37 37 37
Wind_Direction
299 270 260 255 245 251 278 321 359 19 36 29 19 11 3 357 358 4 7 15 7 351 349 356 2 4 2 2 359 354 350 345 340 335 332 328 322 313 304 298 293 291 290 291 293 298 305 316 328
310 284 265 260 256 259 277 296 332 359 19 22 20 11 2 359 353 352 352 349 333 317 318 326 334 335 336 339 340 340 335 330 326 323 321 319 315 309 303 297 294 291 289 289 288 288 289 291 295
304 285 266 261 261 267 275 287 307 331 345 3 10 4 356 352 347 340 335 322 311 302 301 304 313 319 322 326 328 330 329 326 322 320 318 315 314 311 307 303 299 295 292 290 288 286 284 281 280
291 278 262 257 261 271 272 276 287 303 319 343 351 348 344 339 335 331 323 309 303 297 295 299 306 311 316 319 321 322 322 323 321 320 318 316 315 314 312 309 305 301 296 293 289 287 284 281 275
279 270 257 252 259 266 265 269 278 287 302 319 329 329 330 328 326 323 314 300 297 295 295 301 307 311 314 316 318 320 321 322 322 321 318 315 314 314 313 312 309 305 301 297 294 292 288 283 277
269 263 249 246 255 259 257 259 265 273 287 301 308 311 314 316 319 318 309 296 291 292 296 301 306 310 313 314 316 319 321 322 322 321 318 316 313 310 309 308 308 306 303 300 296 293 291 289 282
263 256 242 246 250 252 252 253 255 264 276 289 297 301 305 308 314 312 304 291 281 282 287 291 295 298 302 305 308 312 314 315 315 315 315 313 310 306 304 304 304 303 302 300 298 295 291 291 285
258 249 236 240 244 247 248 246 250 259 267 281 288 293 298 304 308 304 293 285 277 274 275 278 283 286 288 292 296 300 302 304 307 308 310 309 307 305 303 301 301 300 299 298 296 294 293 291 288
256 242 231 234 240 244 245 244 250 259 268 278 284 290 297 299 301 296 287 279 274 272 272 271 272 277 279 281 285 290 292 294 297 299 302 302 304 303 303 301 299 299 297 295 293 292 294 293 292
254 238 227 231 238 243 245 248 254 261 267 275 284 291 295 298 297 292 285 277 274 272 270 271 270 273 275 278 280 283 284 285 290 293 296 298 300 301 300 300 300 299 298 295 293 291 291 293 293
248 236 228 231 237 243 246 250 255 261 266 275 284 290 294 297 296 291 286 279 273 273 269 271 269 273 277 279 281 279 279 282 288 289 292 295 298 299 298 298 299 299 297 296 294 291 291 292 292
246 237 232 233 238 242 246 252 256 262 269 276 283 288 292 294 291 288 286 282 276 273 273 274 279 280 280 280 282 280 281 283 287 288 290 293 295 295 295 296 297 296 295 293 292 290 289 291 290
246 239 235 234 238 243 247 252 258 264 271 277 284 289 291 291 288 285 285 285 284 280 279 281 282 281 282 286 288 292 287 287 288 290 290 291 291 292 292 292 293 293 292 291 290 288 287 287 287
243 240 238 237 239 243 248 253 259 266 272 278 285 289 290 288 288 288 287 285 283 282 280 281 282 284 288 291 291 292 293 293 292 291 291 290 290 290 290 290 290 290 289 289 288 286 284 284 284
241 241 241 242 243 246 250 255 259 266 273 279 284 287 288 288 290 291 290 287 285 284 283 284 285 287 289 290 291 292 292 292 292 291 290 289 289 289 289 288 287 287 286 285 284 283 281 281 281
242 242 244 249 253 255 258 259 262 268 273 278 282 285 286 287 290 290 288 287 286 286 287 288 289 290 292 293 294 294 294 294 294 293 292 291 291 290 289 287 286 285 284 282 281 280 278 278 277
246 243 250 258 264 265 267 267 268 272 276 278 279 282 282 287 288 290 289 293 294 295 296 297 298 299 300 300 301 300 299 298 298 297 295 294 293 292 290 288 287 285 283 281 279 278 276 274 274
257 257 266 275 281 281 280 279 276 274 275 275 275 278 278 285 290 293 297 301 302 303 305 306 308 308 308 308 307 306 304 303 302 301 299 297 296 294 291 289 288 285 283 281 279 277 275 273 271
268 271 273 286 299 297 290 286 281 277 272 268 267 270 275 278 290 300 307 311 313 314 315 316 316 316 314 313 311 310 308 307 305 303 301 299 298 296 294 291 289 286 284 282 280 277 275 272 270
275 289 298 300 303 305 297 293 294 283 270 262 260 264 277 291 306 314 318 321 322 322 322 322 320 318 317 315 314 312 310 308 306 303 301 300 298 297 294 292 290 288 285 283 280 277 274 271 268
290 303 316 318 316 320 314 316 315 293 256 227 234 253 288 314 323 327 328 327 326 326 325 322 320 318 316 314 311 309 307 305 303 302 301 299 297 296 294 292 290 288 286 283 280 277 274 271 268
308 323 333 342 351 348 342 347 9 85 138 150 158 17 338 331 331 331 329 328 327 325 323 320 318 317 315 313 310 308 306 305 304 303 302 301 300 298 296 294 292 290 287 285 282 279 275 271 267
318 315 329 348 3 26 32 33 65 88 114 125 113 351 323 322 324 326 327 327 326 325 325 325 324 323 323 322 320 317 314 312 310 309 307 306 304 302 300 297 295 292 289 286 284 281 277 273 268
323 317 315 332 353 39 43 43 79 91 86 115 285 309 310 311 315 320 324 326 328 331 331 332 332 331 331 330 330 328 325 323 320 318 316 314 311 309 306 302 298 294 291 287 284 281 277 273 268
333 331 323 304 292 299 345 43 39 352 319 309 296 298 301 304 311 318 325 330 334 337 339 340 340 340 339 338 336 335 333 330 328 325 323 320 316 313 309 305 300 296 291 288 284 280 276 271 267
332 333 329 316 291 261 254 272 301 299 294 293 292 294 298 303 310 318 325 332 337 340 343 345 345 343 342 340 339 338 336 333 331 328 325 323 319 315 311 307 303 298 293 288 284 279 274 270 266
321 327 324 316 293 261 253 263 278 282 283 283 287 293 299 305 312 322 330 335 340 343 345 346 345 343 341 340 339 338 337 335 333 331 328 325 321 317 313 308 304 299 294 289 285 279 274 269 265
309 315 318 316 306 278 262 263 270 273 277 281 286 294 304 312 320 328 335 339 342 345 345 344 343 341 340 339 338 337 337 336 334 333 330 327 324 320 315 310 306 300 295 290 285 280 275 270 264
299 301 304 306 304 295 284 281 278 282 284 287 293 303 313 321 328 334 338 341 342 343 342 340 339 338 337 337 336 336 336 335 334 333 331 328 326 322 318 314 309 303 298 293 287 281 276 270 265
286 290 294 296 296 295 298 305 294 296 298 301 307 315 322 328 333 337 338 340 340 339 337 336 335 335 334 334 334 334 334 333 332 331 330 328 326 324 321 316 312 307 301 295 289 283 278 272 267
Height
5916 5916 5916 5916 5917 5915 5914 5914 5913 5912 5911 5912 5912 5912 5911 5911 5912 5913 5911 5909 5909 5908 5907 5906 5905 5904 5903 5903 5902 5902 5901 5901 5901 5900 5900 5900 5900 5900 5900 5899 5899 5898 5898 5897 5897 5897 5897 5897 5897
5915 5915 5915 5915 5914 5914 5914 5914 5913 5912 5912 5911 5911 5911 5911 5911 5911 5911 5910 5909 5909 5908 5907 5905 5904 5903 5903 5902 5901 5901 5901 5900 5900 5899 5899 5898 5898 5898 5898 5897 5897 5896 5896 5895 5895 5895 5895 5895 5895
5914 5914 5914 5913 5912 5912 5913 5913 5912 5912 5911 5910 5910 5911 5911 5911 5911 5911 5910 5910 5909 5908 5906 5905 5904 5903 5902 5901 5900 5900 5899 5899 5898 5898 5897 5897 5896 5895 5895 5895 5894 5894 5893 5893 5892 5892 5892 5892 5893
5913 5913 5912 5911 5909 5909 5910 5911 5910 5911 5910 5910 5909 5910 5910 5910 5910 5910 5909 5909 5908 5907 5905 5904 5903 5902 5901 5900 5899 5898 5898 5897 5897 5896 5895 5895 5894 5893 5892 5892 5891 5890 5890 5889 5889 5889 5889 5889 5889
5911 5910 5909 5907 5906 5907 5907 5908 5908 5908 5908 5908 5908 5909 5909 5909 5909 5908 5908 5908 5907 5906 5904 5903 5902 5901 5899 5899 5898 5897 5896 5896 5895 5894 5893 5893 5892 5891 5890 5889 5888 5887 5886 5886 5885 5885 5885 5885 5885
5909 5908 5906 5904 5903 5904 5904 5905 5905 5906 5906 5906 5906 5907 5907 5907 5907 5906 5906 5906 5905 5904 5903 5901 5900 5899 5898 5897 5896 5895 5894 5894 5893 5892 5891 5890 5889 5888 5887 5886 5885 5884 5883 5882 5881 5880 5880 5880 5880
5907 5905 5903 5901 5900 5900 5901 5902 5903 5903 5903 5903 5904 5904 5904 5904 5904 5904 5903 5903 5903 5902 5901 5899 5898 5897 5896 5894 5894 5893 5892 5891 5890 5889 5888 5887 5886 5885 5884 5883 5882 5880 5879 5878 5877 5876 5875 5875 5874
5902 5902 5900 5897 5896 5896 5897 5898 5899 5900 5900 5901 5901 5901 5901 5901 5901 5900 5900 5900 5899 5898 5897 5896 5895 5894 5893 5891 5890 5890 5889 5888 5887 5886 5885 5884 5883 5882 5880 5879 5878 5876 5875 5874 5873 5872 5871 5870 5869
5898 5899 5896 5894 5892 5892 5893 5894 5895 5896 5897 5898 5898 5899 5898 5898 5897 5897 5896 5896 5895 5894 5893 5892 5891 5890 5889 5888 5887 5886 5885 5884 5883 5882 5881 5880 5879 5877 5876 5874 5873 5872 5870 5870 5869 5867 5866 5865 5864
5893 5893 5892 5889 5888 5888 5889 5891 5892 5893 5894 5895 5895 5895 5894 5894 5893 5893 5892 5892 5891 5890 5889 5887 5886 5885 5884 5883 5882 5881 5879 5879 5878 5878 5877 5876 5874 5873 5871 5870 5868 5867 5866 5865 5864 5863 5862 5861 5860
5886 5886 5886 5885 5884 5884 5886 5887 5888 5889 5890 5891 5891 5891 5890 5890 5889 5888 5888 5887 5886 5884 5883 5882 5880 5879 5879 5878 5876 5875 5874 5874 5874 5873 5872 5871 5869 5868 5866 5865 5864 5862 5861 5860 5859 5859 5858 5856 5856
5879 5879 5880 5881 5880 5881 5883 5883 5884 5885 5886 5886 5887 5886 5886 5885 5884 5883 5883 5882 5881 5879 5878 5877 5876 5874 5873 5872 5871 5869 5868 5868 5868 5868 5867 5866 5864 5863 5861 5860 5859 5857 5856 5855 5854 5854 5853 5852 5851
5873 5874 5875 5877 5877 5878 5879 5880 5881 5881 5882 5882 5882 5882 5882 5880 5879 5879 5878 5877 5876 5875 5874 5873 5872 5869 5867 5866 5866 5864 5863 5863 5863 5862 5861 5860 5859 5857 5856 5854 5853 5851 5850 5849 5849 5848 5848 5847 5846
5869 5870 5872 5873 5874 5875 5875 5876 5877 5877 5877 5878 5878 5877 5877 5876 5875 5874 5873 5872 5871 5870 5870 5869 5867 5865 5863 5862 5862 5861 5860 5859 5858 5857 5855 5854 5852 5851 5849 5848 5847 5845 5844 5843 5843 5842 5842 5841 5841
5867 5868 5869 5870 5871 5872 5872 5874 5874 5874 5874 5874 5874 5873 5872 5871 5870 5870 5869 5868 5867 5866 5866 5865 5864 5862 5861 5860 5859 5857 5856 5854 5853 5851 5849 5847 5846 5844 5843 5841 5840 5838 5837 5836 5836 5836 5835 5835 5835
5866 5867 5868 5869 5869 5869 5871 5871 5871 5870 5871 5870 5869 5868 5867 5866 5866 5866 5865 5864 5863 5863 5862 5861 5860 5858 5857 5855 5854 5852 5850 5848 5846 5844 5842 5840 5838 5837 5835 5833 5832 5831 5830 5829 5829 5828 5829 5828 5828
5866 5866 5867 5868 5867 5867 5868 5867 5867 5867 5867 5866 5864 5863 5863 5863 5862 5862 5861 5860 5859 5858 5857 5856 5854 5853 5851 5849 5847 5845 5843 5841 5839 5837 5835 5833 5831 5829 5827 5826 5824 5823 5822 5821 5821 5821 5821 5821 5821
5867 5867 5867 5867 5866 5866 5865 5864 5863 5862 5861 5860 5860 5859 5858 5859 5858 5858 5857 5857 5856 5854 5853 5851 5849 5847 5845 5843 5840 5838 5836 5834 5832 5830 5828 5826 5824 5822 5820 5818 5817 5815 5814 5813 5813 5813 5813 5813 5813
5867 5867 5866 5866 5865 5863 5862 5860 5858 5856 5855 5855 5855 5855 5855 5855 5856 5856 5855 5854 5852 5850 5849 5846 5844 5841 5839 5836 5834 5832 5829 5827 5824 5823 5821 5819 5817 5814 5812 5811 5809 5807 5806 5805 5804 5804 5804 5804 5805
5868 5867 5866 5865 5863 5861 5859 5857 5855 5852 5851 5851 5851 5852 5853 5854 5854 5854 5853 5851 5849 5847 5845 5842 5839 5837 5834 5831 5828 5826 5823 5821 5818 5816 5814 5812 5810 5807 5805 5803 5801 5799 5798 5796 5796 5795 5796 5795 5796
5867 5866 5865 5863 5861 5859 5857 5856 5853 5850 5848 5849 5850 5851 5852 5853 5853 5852 5851 5849 5847 5844 5842 5839 5836 5833 5829 5826 5823 5820 5817 5814 5812 5809 5806 5804 5802 5800 5798 5796 5794 5791 5790 5788 5787 5787 5787 5786 5787
5866 5865 5864 5862 5860 5858 5856 5854 5852 5850 5849 5849 5851 5851 5852 5853 5852 5851 5849 5848 5845 5843 5840 5837 5834 5830 5826 5822 5818 5815 5811 5808 5805 5802 5799 5796 5794 5792 5790 5788 5786 5783 5781 5780 5779 5778 5777 5777 5777
5866 5865 5864 5862 5860 5858 5856 5854 5853 5851 5851 5851 5852 5852 5853 5852 5851 5850 5848 5846 5844 5841 5838 5834 5830 5826 5822 5818 5813 5809 5805 5802 5798 5795 5792 5789 5786 5784 5781 5779 5777 5775 5773 5771 5770 5769 5768 5768 5768
5865 5864 5863 5861 5860 5859 5857 5856 5855 5853 5853 5853 5853 5853 5853 5852 5851 5849 5847 5845 5841 5838 5834 5830 5826 5821 5817 5812 5808 5804 5800 5796 5792 5788 5785 5781 5778 5775 5773 5770 5768 5766 5764 5762 5760 5759 5758 5758 5758
5864 5863 5862 5861 5860 5859 5858 5857 5857 5855 5854 5854 5853 5853 5852 5851 5849 5847 5845 5842 5838 5834 5830 5826 5821 5816 5812 5807 5803 5799 5795 5791 5787 5783 5779 5775 5771 5768 5764 5762 5759 5756 5754 5752 5750 5749 5748 5748 5748
5863 5862 5861 5860 5859 5858 5857 5857 5857 5855 5854 5853 5853 5852 5850 5849 5847 5845 5842 5838 5835 5830 5826 5821 5816 5812 5807 5803 5798 5794 5790 5785 5781 5777 5773 5769 5765 5760 5756 5752 5749 5746 5743 5740 5738 5737 5736 5736 5736
5861 5860 5859 5859 5857 5857 5856 5856 5856 5854 5853 5852 5851 5850 5848 5847 5845 5842 5838 5834 5830 5825 5820 5816 5811 5807 5802 5798 5793 5789 5784 5780 5775 5771 5766 5762 5757 5753 5748 5743 5738 5734 5731 5728 5726 5724 5724 5723 5723
5861 5859 5858 5857 5856 5855 5855 5854 5853 5851 5850 5849 5848 5847 5845 5843 5841 5837 5833 5828 5824 5819 5815 5811 5806 5802 5797 5793 5788 5783 5779 5774 5769 5764 5759 5754 5749 5743 5738 5733 5728 5723 5719 5716 5713 5712 5711 5711 5711
5859 5858 5857 5855 5854 5854 5853 5854 5851 5849 5847 5846 5845 5843 5841 5838 5835 5831 5827 5822 5818 5814 5810 5806 5802 5797 5793 5788 5783 5777 5772 5767 5761 5756 5751 5745 5740 5734 5728 5722 5717 5712 5707 5704 5701 5699 5698 5697 5698
5857 5856 5855 5854 5853 5851 5850 5853 5848 5846 5844 5842 5840 5838 5836 5833 5829 5825 5821 5817 5813 5809 5805 5801 5797 5792 5788 5782 5777 5771 5765 5760 5754 5748 5743 5737 5731 5724 5718 5712 5706 5701 5696 5692 5689 5687 5685 5685 5685